Regional Weather Roundup
Issued by NWS

Home | Current Version | Previous Version | Graphics & Text | Print | Product List | Glossary On
Versions: 1 2 3 4 5 6 7 8 9 10 11 12 13 14 15 16 17 18 19 20 21 22 23 24 25 26 27 28 29 30 31 32 33 34 35 36 37 38 39 40 41 42 43 44 45 46 47 48 49 50
000
ASUS43 KTOP 172359
RWRKS

WEATHER ROUNDUP FOR KANSAS
NATIONAL WEATHER SERVICE GOODLAND KS
600 PM CST WED JAN 17 2018

NOTE:  "FAIR" INDICATES FEW OR NO CLOUDS BELOW 12,000 FEET WITH NO
SIGNIFICANT WEATHER AND/OR OBSTRUCTIONS TO VISIBILITY.

KSZ001>006-013>018-027>032-041>047-180100-
NORTHWEST KANSAS

CITY           SKY/WX    TMP DP  RH WIND       PRES   REMARKS
GOODLAND       CLEAR     41   6  23 CALM      30.25S
6HR MIN TEMP:  36; 6HR MAX TEMP:  50;

HAYS           CLEAR     32  13  45 S8        30.34F
HILL CITY      CLEAR     34  14  43 SE3       30.32S
6HR MIN TEMP:  25; 6HR MAX TEMP:  40;

RUSSELL        CLEAR     30  19  63 S9        30.34F
6HR MIN TEMP:  25; 6HR MAX TEMP:  36;

$$

KSZ061>065-074>080-084>089-180100-
SOUTHWEST KANSAS

CITY           SKY/WX    TMP DP  RH WIND       PRES   REMARKS
DODGE CITY     CLEAR     35   9  33 S12       30.32S WCI  27
6HR MIN TEMP:  30; 6HR MAX TEMP:  45;

GARDEN CITY    CLEAR     40   8  26 SE3       30.29S
6HR MIN TEMP:  29; 6HR MAX TEMP:  47;

GREAT BEND     CLEAR     30  12  47 S10       30.37S WCI  21
LIBERAL        CLEAR     37  11  34 S10       30.31S WCI  30
$$

KSZ066>073-081>083-090>101-180100-
SOUTHEAST KANSAS

CITY           SKY/WX    TMP DP  RH WIND       PRES   REMARKS
CHANUTE        CLOUDY    17  11  77 SE7       30.54F
6HR MIN TEMP:  16; 6HR MAX TEMP:  22;

COFFEYVILLE    CLOUDY    21  11  65 SE6       30.57F
6HR MIN TEMP:  17; 6HR MAX TEMP:  26;

HUTCHINSON     CLEAR     28  10  46 S10       30.42F WCI  19
6HR MIN TEMP:  26; 6HR MAX TEMP:  35;

MEDICINE LODGE   N/A     32   3  29 SE8       30.42S
NEWTON         CLEAR     22  13  68 S12       30.44F WCI  10
PARSONS        CLOUDY    20  12  71 SE3       30.56F
6HR MIN TEMP:  16; 6HR MAX TEMP:  23;

WICHITA INTL   CLEAR     27   8  44 S9        30.46S
6HR MIN TEMP:  24; 6HR MAX TEMP:  34;

WICHITA JABRA  CLEAR     25  10  53 S9        30.46S
6HR MIN TEMP:  21; 6HR MAX TEMP:  30;

WICHITA MCCONL CLEAR     27   6  41 S10       30.46F WCI  17
WINFIELD       CLEAR     25   8  48 S9        30.50F
6HR MIN TEMP:  23; 6HR MAX TEMP:  32;

$$

KSZ007>012-019>026-033>040-048>060-102>105-180100-
NORTHEAST KANSAS

CITY           SKY/WX    TMP DP  RH WIND       PRES   REMARKS
CONCORDIA      CLOUDY    24  14  65 S8        30.39S
6HR MIN TEMP:  22; 6HR MAX TEMP:  30;

EMPORIA        CLOUDY    21  14  74 S8        30.48F
6HR MIN TEMP:  20; 6HR MAX TEMP:  26;

LAWRENCE       CLOUDY    19  11  70 SE7       30.51F
6HR MIN TEMP:  19; 6HR MAX TEMP:  26;

MANHATTAN      CLEAR     25  14  63 S8        30.46S
6HR MIN TEMP:  23; 6HR MAX TEMP:  30;

OLATHE IND     CLOUDY    17   9  70 S7        30.51F
6HR MIN TEMP:  17; 6HR MAX TEMP:  23;

OLATHE EXE     CLOUDY    18  10  71 S6        30.50F
6HR MIN TEMP:  16; 6HR MAX TEMP:  22;

SALINA         CLEAR     26  14  60 S8        30.42F
6HR MIN TEMP:  23; 6HR MAX TEMP:  31;

TOPEKA BILLARD CLOUDY    23  13  65 S5        30.49F
6HR MIN TEMP:  21; 6HR MAX TEMP:  27;

TOPEKA FORBES  CLOUDY    22  12  65 S8        30.47F
6HR MIN TEMP:  20; 6HR MAX TEMP:  27;

$$



USA.gov is the U.S. government's official web portal to all federal, state and local government web resources and services.